This is the latest recevied weather packets stored in our database for station/object K4DNM. If no packets are shown the sender has not sent any weather packets the latest 10 day(s).
| Time | Temp. | Humidity | Pressure | Rain* | Wind** | Luminosity | Snow |
|---|---|---|---|---|---|---|---|
| 1777591123 | 19.44° C | 68% | 1008.4 hPa | 0 mm | - | 20 W/m² | - |
| 1777590763 | 20° C | 65% | 1008.3 hPa | 0 mm | - | 33 W/m² | - |
| 1777590458 | 20° C | 65% | 1008.2 hPa | 0 mm | - | 36 W/m² | - |
| 1777590159 | 20.56° C | 64% | 1008.2 hPa | 0 mm | - | 28 W/m² | - |
| 1777589859 | 20.56° C | 64% | 1008.1 hPa | 0 mm | - | 39 W/m² | - |
| 1777589560 | 21.11° C | 61% | 1008.1 hPa | 0 mm | - | 37 W/m² | - |
| 1777589261 | 21.11° C | 59% | 1008.1 hPa | 0 mm | - | 32 W/m² | - |
| 1777588961 | 21.67° C | 60% | 1008.1 hPa | 0 mm | - | 34 W/m² | - |
| 1777588662 | 21.67° C | 57% | 1008.1 hPa | 0 mm | - | 58 W/m² | - |
| 1777588361 | 21.67° C | 56% | 1008.1 hPa | 0 mm | - | 62 W/m² | - |
| 1777588060 | 21.67° C | 54% | 1008.1 hPa | 0 mm | - | 55 W/m² | - |
| 1777587758 | 22.22° C | 54% | 1008.1 hPa | 0 mm | - | 59 W/m² | - |
| 1777587458 | 22.22° C | 54% | 1008 hPa | 0 mm | - | 75 W/m² | - |
| 1777587158 | 22.22° C | 53% | 1008 hPa | 0 mm | - | 76 W/m² | - |
| 1777586857 | 22.22° C | 52% | 1008 hPa | 0 mm | - | 74 W/m² | - |
| 1777586556 | 22.78° C | 52% | 1008 hPa | 0 mm | - | 95 W/m² | - |
| 1777586257 | 22.22° C | 52% | 1008 hPa | 0 mm | - | 97 W/m² | - |
| 1777585957 | 22.22° C | 54% | 1007.9 hPa | 0 mm | - | 99 W/m² | - |
| 1777585657 | 22.22° C | 53% | 1007.9 hPa | 0 mm | - | 82 W/m² | - |
| 1777585358 | 22.22° C | 53% | 1007.9 hPa | 0 mm | - | 89 W/m² | - |
| 1777585058 | 22.22° C | 56% | 1007.9 hPa | 0 mm | - | 75 W/m² | - |
| 1777584757 | 22.78° C | 52% | 1007.9 hPa | 0 mm | - | 80 W/m² | - |
| 1777584455 | 22.78° C | 54% | 1007.9 hPa | 0 mm | - | 102 W/m² | - |
| 1777584156 | 22.78° C | 51% | 1007.9 hPa | 0 mm | - | 130 W/m² | - |
| 1777583855 | 22.22° C | 52% | 1008 hPa | 0 mm | - | 140 W/m² | - |
* Rain latest hour (hover to see other rain measurements)
** Current wind speed in m/s (hover to see current wind gust speed)